SCP
0 0 0 0 0 0 0 0 0 0 0 0 0 0 0 0 0 0 0 -0 -0 -0 0 0 0 0 0 0 0 -0 -0 -0 -0 -0 -0 -0 -0 0
0 0 0 0 0 0 0 0 0 0 0 0 0 0 0 0 0 0 -0 -0 -0 -0 -0 0 0 0 0 -0 -0 -0 -0 -0 -0 -0 -0 -0 0 0
-0 0 0 0 0 0 0 0 0 0 0 0 0 0 0 0 0 0 0 0 0 -0 0 -0 0 0 0 0 0 -0 0 -0 -0 -0 -0 0 0 0
0 0 0 0 -0 0 0 -0 0 0 0 0 0 0 0 -0 0 0 0 0 0 0 0 0 0 -0 -0 -0 -0 0 0 -0 -0 -0 -0 0 0 0
0 0 0 -0 -0 0 -0 -0 0 0 0 -0 0 0 0 -0 0 0 0 0 0 0 0 -0 -0 0 -0 0 -0 -0 -0 -0 -0 0 0 0 0 0
0 0 0 0 -0 -0 -0 -0 0 0 0 0 0 0 0 0 0 0 -0 0 -0 0 -0 0 0 -0 0 -0 -0 -0 -0 -0 0 0 0 0 0 0
0 0 0 0 -0 -0 0 0 0 0 0 0 0 0 -0 0 -0 0 0 0 0 0 0 0 0 0 -0 -0 -0 -0 -0 -0 0 0 0 0 0 0
0 0 0 -0 -0 0 0 0 0 0 0 0 -0 -0 0 0 0 0 -0 -0 -0 -0 0 -0 0 0 0 0 -0 -0 -0 0 0 0 0 0 0 0
0 0 0 0 0 0 0 0 0 0 0 0 0 -0 -0 -0 -0 -0 -0 0 -0 -0 0 -0 -0 0 0 0 -0 0 0 0 0 0 0 0 0 0
0 0 0 0 0 0 0 0 0 0 0 0 0 -0 -0 -0 0 -0 -0 -0 -0 -0 -0 -0 -0 -0 0 0 0 0 0 0 0 0 0 0 0 0
0 0 0 0 0 0 0 0 0 0 0 0 -0 -0 -0 -0 -0 -0 -0 0 -0 -0 -0 -0 -0 0 0 0 0 0 0 0 0 0 0 0 0 0
0 0 0 0 0 0 -0 0 0 -0 -0 -0 -0 -0 -0 -0 0 -0 -0 0 0 0 0 0 0 0 0 0 0 0 0 0 0 0 0 0 0 0
0 0 0 0 0 0 0 0 0 -0 -0 -0 -0 -0 -0 -0 -0 -0 -0 0 -0 0 0 0 0 0 0 0 0 0 0 0 0 0 0 0 0 0
0 0 0 -0 -0 0 0 -0 -0 0 -0 -0 -0 -0 -0 -0 -0 -0 -0 -0 0 0 0 0 0 0 0 0 0 0 0 0 0 0 0 0 0 0
-0 0 0 -0 -0 -0 -0 -0 -0 -0 -0 -0 -0 -0 0 0 -0 -0 -0 -0 0 0 0 0 0 0 0 0 0 0 0 0 0 0 0 0 0 0
-0 0 0 0 0 -0 -0 -0 -0 -0 0 0 0 0 0 0 -0 0 0 0 0 0 0 0 0 0 0 0 0 0 0 0 0 0 0 0 0 0
0 0 0 0 -0 -0 -0 -0 -0 -0 0 0 0 0 0 -0 -0 0 0 0 0 0 0 0 0 0 0 0 0 0 0 0 0 0 0 0 0 0
-0 0 0 -0 -0 -0 0 0 0 0 0 0 -0 -0 -0 -0 -0 0 0 0 0 0 0 0 0 0 0 0 0 0 0 0 0 0 0 0 0 0
-0 -0 -0 -0 -0 0 -0 -0 -0 -0 0 -0 -0 -0 -0 -0 0 0 0 0 0 0 0 0 0 0 0 0 0 0 0 0 0 0 0 0 0 0
0 0 -0 0 0 -0 -0 -0 -0 -0 0 0 0 -0 -0 0 0 0 0 0 0 0 0 0 0 0 0 0 0 0 0 0 0 0 0 0 0 0
0 0 0 -0 -0 0 -0 -0 -0 -0 -0 0 0 0 0 0 0 0 0 0 0 0 0 0 0 0 0 0 0 0 0 0 0 0 0 0 0 0
-0 0 0 0 -0 -0 -0 -0 0 0 0 0 0 0 0 0 0 0 0 0 0 0 0 0 0 0 0 0 0 0 0 0 0 0 -0 0 0 0
-0 -0 0 0 -0 0 0 0 0 0 0 0 0 0 0 0 0 0 0 0 0 0 0 0 0 0 0 0 0 0 0 0 0 0 -0 0 0 0
Wind_Speed_500mb
6 14 17 15 9 8 16 21 24 24 34 29 17 26 44 48 53 70 81 84 83 78 75 66 57 52 44 41 38 35 28 23 17 12 8 5 6 9
8 6 12 8 9 12 15 29 27 37 29 40 28 43 40 71 94 92 102 93 84 75 67 60 55 54 51 41 37 34 36 15 12 10 7 8 10 13
11 11 11 8 11 10 16 25 34 38 54 49 51 67 75 82 88 93 92 82 67 60 57 48 45 39 48 50 36 34 22 14 11 9 8 13 15 15
7 8 9 12 17 14 25 35 39 36 60 75 66 82 87 92 94 90 80 66 62 60 55 44 32 29 28 28 26 24 16 13 11 9 14 15 11 11
13 14 13 20 29 33 31 37 41 58 66 79 76 78 79 75 78 72 68 64 62 50 40 40 35 30 28 24 19 17 17 11 10 14 10 9 10 11
3 11 19 20 30 39 29 37 59 85 78 81 88 75 60 76 63 70 66 58 56 46 41 42 39 30 24 21 18 14 11 10 11 8 8 9 9 9
10 17 21 26 29 36 27 38 72 80 80 86 83 68 72 71 69 70 68 61 54 50 46 38 31 28 25 21 17 13 11 12 9 7 7 8 7 7
11 24 30 31 38 33 37 42 74 89 84 84 81 70 82 76 67 65 65 61 51 38 44 38 29 27 23 19 15 15 13 10 8 7 7 6 5 8
13 20 31 38 37 40 42 65 68 72 69 83 80 75 76 70 65 61 53 48 46 44 39 34 27 28 24 21 22 17 12 9 8 8 7 6 7 12
21 23 33 40 40 42 51 72 72 64 72 76 70 71 67 61 54 46 44 36 40 38 30 37 29 23 19 25 21 16 13 11 9 8 7 7 9 15
26 27 36 44 44 44 53 70 73 65 65 63 59 62 56 46 40 47 45 41 48 38 26 30 30 21 20 24 18 16 14 13 12 10 8 8 11 17
30 32 43 43 42 39 50 57 72 72 67 66 63 58 44 46 47 35 40 34 45 35 35 23 30 21 16 21 19 19 19 16 14 13 12 12 12 14
36 48 46 41 36 36 43 44 49 86 62 63 67 59 44 44 49 33 32 25 36 22 36 38 31 20 8 15 14 16 22 21 19 16 13 15 18 20
47 47 49 47 44 40 44 55 71 69 57 58 61 45 46 49 49 40 45 30 43 32 17 40 34 28 31 26 26 17 17 19 18 14 15 21 25 27
49 52 52 48 48 44 47 54 64 59 52 55 53 41 42 50 46 39 39 36 37 32 19 48 27 22 28 38 32 30 21 19 17 16 24 27 24 31
48 48 42 39 34 37 44 52 49 41 43 44 42 38 34 47 44 41 33 40 34 41 38 41 43 32 38 39 30 33 25 21 19 25 31 23 13 29
46 42 43 39 45 48 54 48 46 45 41 42 42 39 41 47 49 43 37 40 44 41 39 43 46 46 44 45 38 32 24 26 23 30 32 23 21 30
42 43 43 35 45 47 48 39 32 38 47 44 46 51 56 51 45 42 38 40 44 43 41 44 44 46 45 42 37 36 28 31 34 34 32 20 11 24
36 42 42 39 38 37 41 34 40 47 35 46 50 51 48 43 44 43 40 41 38 41 43 38 39 35 42 49 47 43 37 38 30 36 23 22 21 26
40 34 36 41 43 46 46 44 42 40 52 45 46 44 45 47 52 53 48 52 47 52 55 49 45 41 44 45 43 47 43 32 30 31 28 25 25 20
53 48 44 45 42 48 49 50 50 54 52 56 51 51 49 55 56 61 57 52 52 59 64 62 51 37 39 43 45 46 39 32 26 31 29 25 22 11
53 56 48 45 48 50 51 53 55 58 60 62 58 59 54 57 60 60 60 58 60 64 67 70 65 54 53 57 58 49 39 28 25 31 26 24 18 16
51 50 58 58 45 52 54 57 60 58 60 63 64 64 64 63 62 63 60 59 57 71 76 76 73 64 57 53 59 49 30 21 28 29 24 21 16 20
Wind_Direction_500mb
204 196 199 219 224 212 200 181 188 145 127 147 173 178 177 182 180 187 178 173 158 149 153 155 143 144 150 170 161 165 162 166 168 178 190 209 250 283
193 193 194 179 258 269 213 187 190 187 139 148 172 169 178 172 170 172 155 139 146 149 152 138 153 164 172 166 163 159 182 174 187 205 225 263 286 301
206 210 179 218 226 194 168 180 167 179 149 145 151 146 156 149 139 136 139 142 144 144 142 148 160 178 184 179 176 179 177 194 206 225 262 278 293 303
260 215 204 208 178 156 167 170 178 163 142 141 133 136 140 139 137 140 146 145 144 144 154 161 164 145 137 159 159 168 179 201 222 253 271 284 291 302
225 243 204 171 161 161 147 147 153 147 140 131 130 133 133 136 140 143 147 144 146 147 156 150 154 157 159 159 168 176 194 211 247 269 257 281 290 308
83 156 167 151 148 147 144 161 156 146 145 138 139 142 138 145 138 137 141 146 145 147 147 148 158 171 169 171 181 192 215 247 236 235 262 273 306 326
162 132 139 146 142 137 132 158 157 149 146 145 147 146 142 145 146 147 142 145 152 162 164 168 172 175 177 182 194 212 217 201 221 235 264 297 316 331
96 125 128 135 140 135 125 145 148 152 149 148 147 144 145 150 148 150 150 151 147 165 166 165 178 180 191 195 202 188 198 212 223 249 277 290 297 327
124 134 137 143 143 146 140 151 154 153 155 153 154 151 147 150 152 152 147 149 151 155 168 156 178 195 193 196 187 194 212 222 241 260 268 278 311 329
109 123 143 148 152 149 147 162 159 153 158 155 150 149 151 157 157 151 148 147 140 154 174 154 182 193 194 190 197 205 215 227 248 260 280 290 314 321
112 108 137 142 150 152 152 165 163 162 160 160 153 153 155 156 152 144 155 157 156 171 181 182 194 203 190 202 211 220 223 241 256 259 270 288 312 315
118 120 138 132 152 155 160 158 171 162 159 163 162 159 155 152 158 161 165 173 162 168 182 200 209 201 187 201 225 235 236 249 259 265 273 283 299 319
129 128 129 138 145 151 163 164 168 161 161 162 166 170 165 167 168 168 173 187 181 190 189 207 220 214 229 262 229 249 242 252 257 262 276 297 310 327
140 135 131 129 126 136 153 159 157 164 161 163 168 177 185 175 177 178 188 199 210 221 215 207 229 218 202 242 264 267 236 270 274 270 301 307 317 321
146 144 139 140 136 129 135 144 159 162 169 177 181 181 180 181 176 193 203 213 210 216 196 194 219 235 219 235 253 259 233 268 268 232 267 284 292 299
145 143 144 146 149 154 147 148 151 161 170 174 176 180 186 178 187 210 203 203 208 216 216 213 210 219 217 225 247 224 229 229 245 250 258 278 247 285
156 150 147 150 152 153 153 158 164 177 181 176 181 177 182 190 202 214 219 218 225 232 226 226 224 224 224 229 219 223 233 220 219 247 257 262 242 257
172 164 155 155 165 164 165 166 175 183 190 190 188 184 193 204 210 220 223 219 225 230 232 236 228 221 223 229 231 224 225 224 232 279 266 272 268 280
178 179 173 172 185 180 184 189 192 189 181 192 202 209 221 217 205 220 218 221 221 236 243 245 237 229 229 227 222 220 233 230 253 277 272 277 276 279
180 193 192 191 197 199 200 202 201 203 196 198 211 219 209 209 207 219 226 220 218 221 238 246 243 239 232 229 227 227 229 252 272 260 264 275 273 282
195 194 212 212 207 211 212 211 212 213 222 214 214 219 220 214 218 227 228 226 222 226 233 238 247 240 233 223 224 231 235 276 235 264 275 273 271 282
214 208 202 216 220 220 220 222 223 223 223 226 229 223 224 229 227 227 233 226 227 227 233 240 242 239 230 230 234 237 235 262 233 260 268 269 273 284
223 225 219 210 217 226 227 226 227 227 227 230 233 235 232 229 232 232 233 236 229 231 232 234 234 235 235 237 238 233 254 236 236 252 258 264 283 295
Wind_Speed_850mb
6 14 17 15 9 8 16 21 24 24 34 29 17 26 44 48 53 70 81 84 83 78 75 66 57 52 44 41 38 35 28 23 17 12 8 5 6 9
8 6 12 8 9 12 15 29 27 37 29 40 28 43 40 71 94 92 102 93 84 75 67 60 55 54 51 41 37 34 36 15 12 10 7 8 10 13
11 11 11 8 11 10 16 25 34 38 54 49 51 67 75 82 88 93 92 82 67 60 57 48 45 39 48 50 36 34 22 14 11 9 8 13 15 15
7 8 9 12 17 14 25 35 39 36 60 75 66 82 87 92 94 90 80 66 62 60 55 44 32 29 28 28 26 24 16 13 11 9 14 15 11 11
13 14 13 20 29 33 31 37 41 58 66 79 76 78 79 75 78 72 68 64 62 50 40 40 35 30 28 24 19 17 17 11 10 14 10 9 10 11
3 11 19 20 30 39 29 37 59 85 78 81 88 75 60 76 63 70 66 58 56 46 41 42 39 30 24 21 18 14 11 10 11 8 8 9 9 9
10 17 21 26 29 36 27 38 72 80 80 86 83 68 72 71 69 70 68 61 54 50 46 38 31 28 25 21 17 13 11 12 9 7 7 8 7 7
11 24 30 31 38 33 37 42 74 89 84 84 81 70 82 76 67 65 65 61 51 38 44 38 29 27 23 19 15 15 13 10 8 7 7 6 5 8
13 20 31 38 37 40 42 65 68 72 69 83 80 75 76 70 65 61 53 48 46 44 39 34 27 28 24 21 22 17 12 9 8 8 7 6 7 12
21 23 33 40 40 42 51 72 72 64 72 76 70 71 67 61 54 46 44 36 40 38 30 37 29 23 19 25 21 16 13 11 9 8 7 7 9 15
26 27 36 44 44 44 53 70 73 65 65 63 59 62 56 46 40 47 45 41 48 38 26 30 30 21 20 24 18 16 14 13 12 10 8 8 11 17
30 32 43 43 42 39 50 57 72 72 67 66 63 58 44 46 47 35 40 34 45 35 35 23 30 21 16 21 19 19 19 16 14 13 12 12 12 14
36 48 46 41 36 36 43 44 49 86 62 63 67 59 44 44 49 33 32 25 36 22 36 38 31 20 8 15 14 16 22 21 19 16 13 15 18 20
47 47 49 47 44 40 44 55 71 69 57 58 61 45 46 49 49 40 45 30 43 32 17 40 34 28 31 26 26 17 17 19 18 14 15 21 25 27
49 52 52 48 48 44 47 54 64 59 52 55 53 41 42 50 46 39 39 36 37 32 19 48 27 22 28 38 32 30 21 19 17 16 24 27 24 31
48 48 42 39 34 37 44 52 49 41 43 44 42 38 34 47 44 41 33 40 34 41 38 41 43 32 38 39 30 33 25 21 19 25 31 23 13 29
46 42 43 39 45 48 54 48 46 45 41 42 42 39 41 47 49 43 37 40 44 41 39 43 46 46 44 45 38 32 24 26 23 30 32 23 21 30
42 43 43 35 45 47 48 39 32 38 47 44 46 51 56 51 45 42 38 40 44 43 41 44 44 46 45 42 37 36 28 31 34 34 32 20 11 24
36 42 42 39 38 37 41 34 40 47 35 46 50 51 48 43 44 43 40 41 38 41 43 38 39 35 42 49 47 43 37 38 30 36 23 22 21 26
40 34 36 41 43 46 46 44 42 40 52 45 46 44 45 47 52 53 48 52 47 52 55 49 45 41 44 45 43 47 43 32 30 31 28 25 25 20
53 48 44 45 42 48 49 50 50 54 52 56 51 51 49 55 56 61 57 52 52 59 64 62 51 37 39 43 45 46 39 32 26 31 29 25 22 11
53 56 48 45 48 50 51 53 55 58 60 62 58 59 54 57 60 60 60 58 60 64 67 70 65 54 53 57 58 49 39 28 25 31 26 24 18 16
51 50 58 58 45 52 54 57 60 58 60 63 64 64 64 63 62 63 60 59 57 71 76 76 73 64 57 53 59 49 30 21 28 29 24 21 16 20
Wind_Direction_850mb
204 196 199 219 224 212 200 181 188 145 127 147 173 178 177 182 180 187 178 173 158 149 153 155 143 144 150 170 161 165 162 166 168 178 190 209 250 283
193 193 194 179 258 269 213 187 190 187 139 148 172 169 178 172 170 172 155 139 146 149 152 138 153 164 172 166 163 159 182 174 187 205 225 263 286 301
206 210 179 218 226 194 168 180 167 179 149 145 151 146 156 149 139 136 139 142 144 144 142 148 160 178 184 179 176 179 177 194 206 225 262 278 293 303
260 215 204 208 178 156 167 170 178 163 142 141 133 136 140 139 137 140 146 145 144 144 154 161 164 145 137 159 159 168 179 201 222 253 271 284 291 302
225 243 204 171 161 161 147 147 153 147 140 131 130 133 133 136 140 143 147 144 146 147 156 150 154 157 159 159 168 176 194 211 247 269 257 281 290 308
83 156 167 151 148 147 144 161 156 146 145 138 139 142 138 145 138 137 141 146 145 147 147 148 158 171 169 171 181 192 215 247 236 235 262 273 306 326
162 132 139 146 142 137 132 158 157 149 146 145 147 146 142 145 146 147 142 145 152 162 164 168 172 175 177 182 194 212 217 201 221 235 264 297 316 331
96 125 128 135 140 135 125 145 148 152 149 148 147 144 145 150 148 150 150 151 147 165 166 165 178 180 191 195 202 188 198 212 223 249 277 290 297 327
124 134 137 143 143 146 140 151 154 153 155 153 154 151 147 150 152 152 147 149 151 155 168 156 178 195 193 196 187 194 212 222 241 260 268 278 311 329
109 123 143 148 152 149 147 162 159 153 158 155 150 149 151 157 157 151 148 147 140 154 174 154 182 193 194 190 197 205 215 227 248 260 280 290 314 321
112 108 137 142 150 152 152 165 163 162 160 160 153 153 155 156 152 144 155 157 156 171 181 182 194 203 190 202 211 220 223 241 256 259 270 288 312 315
118 120 138 132 152 155 160 158 171 162 159 163 162 159 155 152 158 161 165 173 162 168 182 200 209 201 187 201 225 235 236 249 259 265 273 283 299 319
129 128 129 138 145 151 163 164 168 161 161 162 166 170 165 167 168 168 173 187 181 190 189 207 220 214 229 262 229 249 242 252 257 262 276 297 310 327
140 135 131 129 126 136 153 159 157 164 161 163 168 177 185 175 177 178 188 199 210 221 215 207 229 218 202 242 264 267 236 270 274 270 301 307 317 321
146 144 139 140 136 129 135 144 159 162 169 177 181 181 180 181 176 193 203 213 210 216 196 194 219 235 219 235 253 259 233 268 268 232 267 284 292 299
145 143 144 146 149 154 147 148 151 161 170 174 176 180 186 178 187 210 203 203 208 216 216 213 210 219 217 225 247 224 229 229 245 250 258 278 247 285
156 150 147 150 152 153 153 158 164 177 181 176 181 177 182 190 202 214 219 218 225 232 226 226 224 224 224 229 219 223 233 220 219 247 257 262 242 257
172 164 155 155 165 164 165 166 175 183 190 190 188 184 193 204 210 220 223 219 225 230 232 236 228 221 223 229 231 224 225 224 232 279 266 272 268 280
178 179 173 172 185 180 184 189 192 189 181 192 202 209 221 217 205 220 218 221 221 236 243 245 237 229 229 227 222 220 233 230 253 277 272 277 276 279
180 193 192 191 197 199 200 202 201 203 196 198 211 219 209 209 207 219 226 220 218 221 238 246 243 239 232 229 227 227 229 252 272 260 264 275 273 282
195 194 212 212 207 211 212 211 212 213 222 214 214 219 220 214 218 227 228 226 222 226 233 238 247 240 233 223 224 231 235 276 235 264 275 273 271 282
214 208 202 216 220 220 220 222 223 223 223 226 229 223 224 229 227 227 233 226 227 227 233 240 242 239 230 230 234 237 235 262 233 260 268 269 273 284
223 225 219 210 217 226 227 226 227 227 227 230 233 235 232 229 232 232 233 236 229 231 232 234 234 235 235 237 238 233 254 236 236 252 258 264 283 295